Orbital Elements at Epoch 2459200.5 (2020-Dec-17.0) TDB
Reference: JPL 10 (heliocentric ecliptic J2000)
Element | Value | Uncertainty (1-sigma) | Units |
e | .4912011033309345 | 8.8247e-07 | |
a | 1.898886868909062 | 3.1203e-06 | au |
q | .966151543800307 | 1.6027e-07 | au |
i | 4.55333689943142 | 1.6258e-05 | deg |
node | 193.3611717713532 | 2.4831e-05 | deg |
peri | 206.8604538638152 | 4.7639e-05 | deg |
M | 156.9423430011519 | 0.00038496 | deg |
tp | 2458783.837231706006 (2019-Oct-27.33723171) | 3.0424e-05 | TDB |
period | 955.7560675944352 2.62 | 0.0023558 6.45e-06 | d yr |
n | .3766651473174452 | 9.2842e-07 | deg/d |
Q | 2.831622194017816 | 4.653e-06 | au |
|
| | Orbit Determination Parameters
Additional Information
|